| time (UTC) | temp C | wind direction | speed KPH | gust KPH | rain 1hr cm | rain 24hr cm | rain mn cm | humidity % | barometer mb |
| 20260507023230 | 20 | 339 | 1.6 | 9.7 | 0.00 | 0.00 | 0.00 | 56 | |
| 20260507022753 | 20 | 322 | 6.4 | 9.7 | 0.00 | 0.00 | 0.00 | 55 | |
| 20260507022235 | 21 | 305 | 3.2 | 8.0 | 0.00 | 0.00 | 0.00 | 55 | |
| 20260507021737 | 21 | 324 | 4.8 | 8.0 | 0.00 | 0.00 | 0.00 | 54 | |
| 20260507021236 | 21 | 309 | 3.2 | 8.0 | 0.00 | 0.00 | 0.00 | 54 | |
| 20260507020737 | 21 | 307 | 3.2 | 11.3 | 0.00 | 0.00 | 0.00 | 54 | |
| 20260507020250 | 21 | 306 | 6.4 | 11.3 | 0.00 | 0.00 | 0.00 | 54 | |
| 20260507015754 | 21 | 310 | 6.4 | 12.9 | 0.00 | 0.00 | 0.00 | 54 | |
| 20260507015235 | 21 | 306 | 6.4 | 12.9 | 0.00 | 0.00 | 0.00 | 53 | |
| 20260507014755 | 22 | 311 | 4.8 | 12.9 | 0.00 | 0.00 | 0.00 | 53 | |
| 20260507014235 | 22 | 266 | 4.8 | 14.5 | 0.00 | 0.00 | 0.00 | 52 | |
| 20260507013731 | 22 | 321 | 8.0 | 14.5 | 0.00 | 0.00 | 0.00 | 52 | |
| 20260507013248 | 22 | 284 | 8.0 | 12.9 | 0.00 | 0.00 | 0.00 | 51 | |
| 20260507012749 | 23 | 268 | 3.2 | 8.0 | 0.00 | 0.00 | 0.00 | 51 | |
| 20260507012230 | 23 | 311 | 3.2 | 11.3 | 0.00 | 0.00 | 0.00 | 50 | |
| 20260507011733 | 23 | 284 | 4.8 | 14.5 | 0.00 | 0.00 | 0.00 | 50 | |
| 20260507011238 | 23 | 321 | 6.4 | 14.5 | 0.00 | 0.00 | 0.00 | 49 | |
| 20260507010742 | 23 | 282 | 4.8 | 16.1 | 0.00 | 0.00 | 0.00 | 49 | |
| 20260507010240 | 23 | 285 | 8.0 | 16.1 | 0.00 | 0.00 | 0.00 | 49 | |
| 20260507005744 | 24 | 320 | 9.7 | 16.1 | 0.00 | 0.00 | 0.00 | 48 | |
| 20260507005250 | 24 | 293 | 6.4 | 16.1 | 0.00 | 0.00 | 0.00 | 48 | |
| 20260507004732 | 24 | 293 | 8.0 | 14.5 | 0.00 | 0.00 | 0.00 | 47 | |
| 20260507004238 | 24 | 291 | 3.2 | 14.5 | 0.00 | 0.00 | 0.00 | 48 | |
| 20260507003800 | 25 | 314 | 9.7 | 16.1 | 0.00 | 0.00 | 0.00 | 47 | |
| 20260507003230 | 24 | 275 | 8.0 | 17.7 | 0.00 | 0.00 | 0.00 | 47 | |
| 20260507002749 | 24 | 285 | 9.7 | 17.7 | 0.00 | 0.00 | 0.00 | 47 | |
| 20260507002251 | 24 | 295 | 6.4 | 14.5 | 0.00 | 0.00 | 0.00 | 47 | |
| 20260507001751 | 25 | 310 | 6.4 | 14.5 | 0.00 | 0.00 | 0.00 | 46 | |
| 20260507001254 | 25 | 317 | 9.7 | 14.5 | 0.00 | 0.00 | 0.00 | 45 | |
| 20260507000735 | 25 | 276 | 3.2 | 17.7 | 0.00 | 0.00 | 0.00 | 46 | |
| 20260507000234 | 25 | 320 | 9.7 | 17.7 | 0.00 | 0.00 | 0.00 | 45 | |
| 20260506235730 | 25 | 306 | 4.8 | 16.1 | 0.00 | 0.00 | 0.00 | 44 | |
| 20260506235233 | 25 | 287 | 3.2 | 20.9 | 0.00 | 0.00 | 0.00 | 45 | |
| 20260506234754 | 25 | 354 | 11.3 | 20.9 | 0.00 | 0.00 | 0.00 | 44 | |
| 20260506234257 | 26 | 281 | 6.4 | 12.9 | 0.00 | 0.00 | 0.00 | 44 | |
| 20260506233738 | 25 | 244 | 4.8 | 19.3 | 0.00 | 0.00 | 0.00 | 44 | |
| 20260506233312 | 26 | 314 | 11.3 | 19.3 | 0.00 | 0.00 | 0.00 | 43 | |
| 20260506232730 | 26 | 248 | 9.7 | 14.5 | 0.00 | 0.00 | 0.00 | 42 | |
| 20260506232235 | 26 | 318 | 4.8 | 12.9 | 0.00 | 0.00 | 0.00 | 42 | |
| 20260506231738 | 26 | 303 | 3.2 | 17.7 | 0.00 | 0.00 | 0.00 | 43 | |
| 20260506231249 | 26 | 243 | 8.0 | 17.7 | 0.00 | 0.00 | 0.00 | 43 | |
| 20260506230730 | 27 | 288 | 4.8 | 14.5 | 0.00 | 0.00 | 0.00 | 42 | |
| 20260506230249 | 27 | 325 | 3.2 | 16.1 | 0.00 | 0.00 | 0.00 | 42 | |
| 20260506225749 | 27 | 264 | 9.7 | 16.1 | 0.00 | 0.00 | 0.00 | 42 | |
| 20260506225252 | 27 | 272 | 6.4 | 16.1 | 0.00 | 0.00 | 0.00 | 42 | |
| 20260506224815 | 26 | 312 | 9.7 | 16.1 | 0.00 | 0.00 | 0.00 | 42 | |
| 20260506223756 | 26 | 293 | 9.7 | 20.9 | 0.00 | 0.00 | 0.00 | 43 | |
| 20260506223235 | 26 | 310 | 9.7 | 22.5 | 0.00 | 0.00 | 0.00 | 43 | |
| 20260506222756 | 26 | 326 | 9.7 | 22.5 | 0.00 | 0.00 | 0.00 | 42 | |
| 20260506222233 | 27 | 337 | 6.4 | 16.1 | 0.00 | 0.00 | 0.00 | 42 | |
| 20260506221733 | 28 | 310 | 9.7 | 16.1 | 0.00 | 0.00 | 0.00 | 40 | |
| 20260506221236 | 27 | 249 | 4.8 | 14.5 | 0.00 | 0.00 | 0.00 | 41 | |
| 20260506220737 | 27 | 289 | 3.2 | 17.7 | 0.00 | 0.00 | 0.00 | 40 | |
| 20260506220255 | 27 | 295 | 8.0 | 17.7 | 0.00 | 0.00 | 0.00 | 40 | |
| 20260506215754 | 27 | 291 | 6.4 | 12.9 | 0.00 | 0.00 | 0.00 | 40 | |
| 20260506215230 | 27 | 256 | 6.4 | 16.1 | 0.00 | 0.00 | 0.00 | 41 | |
| 20260506214750 | 27 | 326 | 8.0 | 16.1 | 0.00 | 0.00 | 0.00 | 40 | |
| 20260506214231 | 27 | 338 | 6.4 | 12.9 | 0.00 | 0.00 | 0.00 | 40 | |
| 20260506213733 | 27 | 354 | 6.4 | 12.9 | 0.00 | 0.00 | 0.00 | 40 | |
| 20260506213253 | 26 | 308 | 3.2 | 12.9 | 0.00 | 0.00 | 0.00 | 41 | |
| 20260506212752 | 26 | 265 | 4.8 | 12.9 | 0.00 | 0.00 | 0.00 | 41 | |
| 20260506212253 | 26 | 104 | 4.8 | 8.0 | 0.00 | 0.00 | 0.00 | 40 | |
| 20260506211754 | 25 | 145 | 3.2 | 4.8 | 0.00 | 0.00 | 0.00 | 40 | |
| 20260506211253 | 25 | 158 | 1.6 | 11.3 | 0.00 | 0.00 | 0.00 | 40 | |
| 20260506210735 | 25 | 139 | 6.4 | 14.5 | 0.00 | 0.00 | 0.00 | 39 | |
| 20260506210233 | 26 | 91 | 6.4 | 12.9 | 0.00 | 0.00 | 0.00 | 39 | |
| 20260506205734 | 26 | 231 | 6.4 | 11.3 | 0.00 | 0.00 | 0.00 | 39 | |
| 20260506205237 | 26 | 283 | 6.4 | 11.3 | 0.00 | 0.00 | 0.00 | 40 | |
| 20260506204737 | 25 | 184 | 4.8 | 9.7 | 0.00 | 0.00 | 0.00 | 40 | |
| 20260506204259 | 25 | 122 | 3.2 | 9.7 | 0.00 | 0.00 | 0.00 | 40 | |
| 20260506203757 | 25 | 125 | 3.2 | 9.7 | 0.00 | 0.00 | 0.00 | 40 | |
| 20260506203233 | 25 | 23 | 4.8 | 11.3 | 0.00 | 0.00 | 0.00 | 40 | |
| 20260506202754 | 25 | 130 | 3.2 | 14.5 | 0.00 | 0.00 | 0.00 | 42 | |
| 20260506202233 | 24 | 166 | 8.0 | 14.5 | 0.00 | 0.00 | 0.00 | 43 | |
| 20260506201733 | 24 | 97 | 6.4 | 12.9 | 0.00 | 0.00 | 0.00 | 42 | |
| 20260506201233 | 23 | 98 | 6.4 | 12.9 | 0.00 | 0.00 | 0.00 | 42 | |
| 20260506200807 | 23 | 85 | 4.8 | 11.3 | 0.00 | 0.00 | 0.00 | 42 | |
| 20260506200252 | 23 | 245 | 3.2 | 16.1 | 0.00 | 0.00 | 0.00 | 43 | |
| 20260506195731 | 23 | 155 | 4.8 | 16.1 | 0.00 | 0.00 | 0.00 | 43 | |
| 20260506195234 | 23 | 106 | 8.0 | 14.5 | 0.00 | 0.00 | 0.00 | 43 | |
| 20260506194736 | 23 | 88 | 8.0 | 14.5 | 0.00 | 0.00 | 0.00 | 44 | |
| 20260506194240 | 23 | 108 | 9.7 | 16.1 | 0.00 | 0.00 | 0.00 | 43 | |
| 20260506193738 | 23 | 91 | 3.2 | 12.9 | 0.00 | 0.00 | 0.00 | 43 | |
| 20260506193255 | 23 | 75 | 4.8 | 12.9 | 0.00 | 0.00 | 0.00 | 44 | |
| 20260506192756 | 23 | 136 | 4.8 | 12.9 | 0.00 | 0.00 | 0.00 | 43 | |
| 20260506192237 | 23 | 91 | 4.8 | 11.3 | 0.00 | 0.00 | 0.00 | 42 | |
| 20260506191736 | 23 | 271 | 4.8 | 11.3 | 0.00 | 0.00 | 0.00 | 45 | |
| 20260506191241 | 22 | 323 | 1.6 | 8.0 | 0.00 | 0.00 | 0.00 | 45 | |
| 20260506190757 | 22 | 4 | 4.8 | 8.0 | 0.00 | 0.00 | 0.00 | 44 | |
| 20260506190239 | 23 | 60 | 4.8 | 9.7 | 0.00 | 0.00 | 0.00 | 44 | |
| 20260506185736 | 22 | 288 | 3.2 | 12.9 | 0.00 | 0.00 | 0.00 | 45 | |
| 20260506185243 | 22 | 162 | 6.4 | 12.9 | 0.00 | 0.00 | 0.00 | 47 | |
| 20260506184742 | 22 | 119 | 6.4 | 12.9 | 0.00 | 0.00 | 0.00 | 47 | |
| 20260506184241 | 21 | 292 | 3.2 | 9.7 | 0.00 | 0.00 | 0.00 | 47 | |
| 20260506183738 | 21 | 60 | 1.6 | 9.7 | 0.00 | 0.00 | 0.00 | 47 | |
| 20260506183238 | 21 | 142 | 3.2 | 8.0 | 0.00 | 0.00 | 0.00 | 49 | |
| 20260506182759 | 21 | 51 | 3.2 | 16.1 | 0.00 | 0.00 | 0.00 | 49 | |
| 20260506182247 | 21 | 93 | 8.0 | 16.1 | 0.00 | 0.00 | 0.00 | 48 | |
| 20260506181808 | 21 | 111 | 8.0 | 14.5 | 0.00 | 0.00 | 0.00 | 48 | |
| 20260506181230 | 21 | 142 | 1.6 | 8.0 | 0.00 | 0.00 | 0.00 | 49 | |
| 20260506180732 | 20 | 148 | 4.8 | 8.0 | 0.00 | 0.00 | 0.00 | 50 | |
| 20260506180239 | 20 | 149 | 3.2 | 9.7 | 0.00 | 0.00 | 0.00 | 49 | |
| 20260506175740 | 20 | 240 | 4.8 | 9.7 | 0.00 | 0.00 | 0.00 | 49 | |
| 20260506175246 | 20 | 87 | 3.2 | 8.0 | 0.00 | 0.00 | 0.00 | 50 | |
| 20260506174748 | 20 | 135 | 3.2 | 9.7 | 0.00 | 0.00 | 0.00 | 50 | |
| 20260506174255 | 20 | 189 | 4.8 | 9.7 | 0.00 | 0.00 | 0.00 | 51 | |
| 20260506173752 | 19 | 323 | 3.2 | 9.7 | 0.00 | 0.00 | 0.00 | 51 | |
| 20260506173309 | 19 | 179 | 3.2 | 8.0 | 0.00 | 0.00 | 0.00 | 52 | |
| 20260506172731 | 19 | 217 | 3.2 | 8.0 | 0.00 | 0.00 | 0.00 | 51 | |
| 20260506172300 | 19 | 121 | 3.2 | 9.7 | 0.00 | 0.00 | 0.00 | 52 | |
| 20260506171740 | 19 | 208 | 6.4 | 9.7 | 0.00 | 0.00 | 0.00 | 52 | |
| 20260506171245 | 19 | 181 | 1.6 | 4.8 | 0.00 | 0.00 | 0.00 | 53 | |
| 20260506170740 | 18 | 104 | 3.2 | 4.8 | 0.00 | 0.00 | 0.00 | 54 | |
| 20260506170312 | 18 | 44 | 1.6 | 9.7 | 0.00 | 0.00 | 0.00 | 55 | |
| 20260506165752 | 18 | 268 | 3.2 | 9.7 | 0.00 | 0.00 | 0.00 | 55 | |
| 20260506165230 | 18 | 220 | 3.2 | 6.4 | 0.00 | 0.00 | 0.00 | 55 | |
| 20260506164731 | 18 | 252 | 4.8 | 6.4 | 0.00 | 0.00 | 0.00 | 57 | |
| 20260506164255 | 17 | 239 | 3.2 | 8.0 | 0.00 | 0.00 | 0.00 | 57 | |
| 20260506163735 | 17 | 151 | 1.6 | 6.4 | 0.00 | 0.00 | 0.00 | 59 | |
| 20260506163249 | 17 | 216 | 1.6 | 8.0 | 0.00 | 0.00 | 0.00 | 60 | |
| 20260506162750 | 17 | 220 | 4.8 | 8.0 | 0.00 | 0.00 | 0.00 | 60 | |
| 20260506162232 | 17 | 73 | 3.2 | 9.7 | 0.00 | 0.00 | 0.00 | 61 | |
| 20260506161731 | 17 | 81 | 4.8 | 9.7 | 0.00 | 0.00 | 0.00 | 62 | |
| 20260506161254 | 17 | 81 | 3.2 | 9.7 | 0.00 | 0.00 | 0.00 | 62 | |
| 20260506160755 | 17 | 265 | 3.2 | 9.7 | 0.00 | 0.00 | 0.00 | 63 | |
| 20260506160250 | 16 | 124 | 3.2 | 6.4 | 0.00 | 0.00 | 0.00 | 63 | |
| 20260506155731 | 16 | 143 | 3.2 | 9.7 | 0.00 | 0.00 | 0.00 | 63 | |
| 20260506155233 | 16 | 39 | 3.2 | 9.7 | 0.00 | 0.00 | 0.00 | 65 | |
| 20260506154754 | 16 | 131 | 3.2 | 6.4 | 0.00 | 0.00 | 0.00 | 65 | |
| 20260506154255 | 16 | 246 | 3.2 | 6.4 | 0.00 | 0.00 | 0.00 | 65 | |
| 20260506153755 | 16 | 172 | 1.6 | 6.4 | 0.00 | 0.00 | 0.00 | 65 | |
| 20260506153252 | 16 | 221 | 1.6 | 4.8 | 0.00 | 0.00 | 0.00 | 66 | |
| 20260506152750 | 15 | 150 | 1.6 | 6.4 | 0.00 | 0.00 | 0.00 | 66 | |
| 20260506152235 | 15 | 52 | 1.6 | 4.8 | 0.00 | 0.00 | 0.00 | 67 | |
| 20260506151735 | 15 | 79 | 3.2 | 6.4 | 0.00 | 0.00 | 0.00 | 67 | |
| 20260506151238 | 15 | 70 | 4.8 | 6.4 | 0.00 | 0.00 | 0.00 | 67 | |
| 20260506150738 | 15 | 116 | 1.6 | 8.0 | 0.00 | 0.00 | 0.00 | 68 | |
| 20260506150240 | 14 | 98 | 1.6 | 4.8 | 0.00 | 0.00 | 0.00 | 69 | |
| 20260506145740 | 15 | 124 | 3.2 | 4.8 | 0.00 | 0.00 | 0.00 | 68 | |
| 20260506145318 | 15 | 104 | 1.6 | 3.2 | 0.00 | 0.00 | 0.00 | 70 | |
| 20260506144731 | 14 | 97 | 0.0 | 0.0 | 0.00 | 0.00 | 0.00 | 71 | |
| 20260506144235 | 14 | 97 | 0.0 | 0.0 | 0.00 | 0.00 | 0.00 | 73 | |
| 20260506143814 | 13 | 108 | 0.0 | 0.0 | 0.00 | 0.00 | 0.00 | 73 | |
| 20260506143230 | 13 | 87 | 0.0 | 0.0 | 0.00 | 0.00 | 0.00 | 75 | |
| 20260506142729 | 13 | 89 | 0.0 | 0.0 | 0.00 | 0.00 | 0.00 | 76 | |
| 20260506142229 | 13 | 102 | 0.0 | 0.0 | 0.00 | 0.00 | 0.00 | 78 | |
| 20260506141730 | 12 | 196 | 0.0 | 0.0 | 0.00 | 0.00 | 0.00 | 80 | |
| 20260506141232 | 12 | 197 | 0.0 | 0.0 | 0.00 | 0.00 | 0.00 | 81 | |
| 20260506140753 | 11 | 314 | 0.0 | 0.0 | 0.00 | 0.00 | 0.00 | 81 | |
| 20260506140316 | 11 | 314 | 0.0 | 0.0 | 0.00 | 0.00 | 0.00 | 82 | |
| 20260506135817 | 11 | 331 | 0.0 | 0.0 | 0.00 | 0.00 | 0.00 | 82 | |
| 20260506135258 | 10 | 327 | 0.0 | 1.6 | 0.00 | 0.00 | 0.00 | 82 | |
| 20260506134737 | 10 | 327 | 0.0 | 1.6 | 0.00 | 0.00 | 0.00 | 83 | |
| 20260506134230 | 10 | 327 | 0.0 | 1.6 | 0.00 | 0.00 | 0.00 | 83 | |
| 20260506133731 | 10 | 327 | 0.0 | 0.0 | 0.00 | 0.00 | 0.00 | 86 | |
| 20260506133250 | 10 | 327 | 0.0 | 0.0 | 0.00 | 0.00 | 0.00 | 83 | |
| 20260506132732 | 9 | 327 | 0.0 | 1.6 | 0.00 | 0.00 | 0.00 | 83 | |
| 20260506132308 | 9 | 327 | 0.0 | 4.8 | 0.00 | 0.00 | 0.00 | 82 | |
| 20260506131748 | 9 | 331 | 1.6 | 4.8 | 0.00 | 0.00 | 0.00 | 82 | |
| 20260506131248 | 9 | 336 | 1.6 | 3.2 | 0.00 | 0.00 | 0.00 | 82 | |
| 20260506130747 | 9 | 315 | 0.0 | 0.0 | 0.00 | 0.00 | 0.00 | 82 | |
| 20260506130314 | 9 | 315 | 0.0 | 0.0 | 0.00 | 0.00 | 0.00 | 82 | |
| 20260506125752 | 9 | 315 | 0.0 | 0.0 | 0.00 | 0.00 | 0.00 | 82 | |
| 20260506125236 | 9 | 315 | 0.0 | 0.0 | 0.00 | 0.00 | 0.00 | 82 | |
| 20260506124736 | 9 | 315 | 0.0 | 0.0 | 0.00 | 0.00 | 0.00 | 82 | |
| 20260506124237 | 9 | 315 | 0.0 | 0.0 | 0.00 | 0.00 | 0.00 | 82 | |
| 20260506123736 | 9 | 315 | 0.0 | 0.0 | 0.00 | 0.00 | 0.00 | 81 | |
| 20260506123251 | 9 | 315 | 0.0 | 0.0 | 0.00 | 0.00 | 0.00 | 81 | |
| 20260506122751 | 9 | 315 | 0.0 | 0.0 | 0.00 | 0.00 | 0.00 | 81 | |
| 20260506122233 | 9 | 315 | 0.0 | 0.0 | 0.00 | 0.00 | 0.00 | 81 | |
| 20260506121732 | 10 | 315 | 0.0 | 0.0 | 0.00 | 0.00 | 0.00 | 81 | |
| 20260506121232 | 10 | 315 | 0.0 | 0.0 | 0.00 | 0.00 | 0.00 | 81 | |
| 20260506120732 | 10 | 315 | 0.0 | 0.0 | 0.00 | 0.00 | 0.00 | 81 | |
| 20260506120251 | 10 | 315 | 0.0 | 0.0 | 0.00 | 0.00 | 0.00 | 81 | |
| 20260506115732 | 10 | 315 | 0.0 | 0.0 | 0.00 | 0.00 | 0.00 | 80 | |
| 20260506115245 | 10 | 315 | 0.0 | 0.0 | 0.00 | 0.00 | 0.00 | 80 | |
| 20260506114748 | 10 | 315 | 0.0 | 0.0 | 0.00 | 0.00 | 0.00 | 80 | |
| 20260506114233 | 10 | 315 | 0.0 | 0.0 | 0.00 | 0.00 | 0.00 | 80 | |
| 20260506113734 | 10 | 315 | 0.0 | 0.0 | 0.00 | 0.00 | 0.00 | 80 | |
| 20260506113258 | 10 | 315 | 0.0 | 0.0 | 0.00 | 0.00 | 0.00 | 80 | |
| 20260506112737 | 10 | 315 | 0.0 | 0.0 | 0.00 | 0.00 | 0.00 | 80 | |
| 20260506112259 | 10 | 315 | 0.0 | 0.0 | 0.00 | 0.00 | 0.00 | 79 | |
| 20260506111739 | 10 | 315 | 0.0 | 0.0 | 0.00 | 0.00 | 0.00 | 79 | |
| 20260506111229 | 10 | 315 | 0.0 | 0.0 | 0.00 | 0.00 | 0.00 | 79 | |
| 20260506110732 | 10 | 315 | 0.0 | 0.0 | 0.00 | 0.00 | 0.00 | 79 | |
| 20260506110232 | 10 | 315 | 0.0 | 0.0 | 0.00 | 0.00 | 0.00 | 79 | |
| 20260506105735 | 10 | 315 | 0.0 | 3.2 | 0.00 | 0.00 | 0.00 | 79 | |
| 20260506105258 | 11 | 315 | 0.0 | 4.8 | 0.00 | 0.00 | 0.00 | 79 | |
| 20260506104738 | 11 | 328 | 1.6 | 4.8 | 0.00 | 0.00 | 0.00 | 79 | |
| 20260506104229 | 11 | 334 | 3.2 | 4.8 | 0.00 | 0.00 | 0.00 | 79 | |
| 20260506103752 | 11 | 332 | 0.0 | 4.8 | 0.00 | 0.00 | 0.00 | 79 | |
| 20260506103249 | 11 | 330 | 1.6 | 4.8 | 0.00 | 0.00 | 0.00 | 79 | |
| 20260506102751 | 11 | 324 | 1.6 | 3.2 | 0.00 | 0.00 | 0.00 | 79 | |
| 20260506102235 | 11 | 329 | 0.0 | 6.4 | 0.00 | 0.00 | 0.00 | 79 | |
| 20260506101735 | 11 | 322 | 3.2 | 6.4 | 0.00 | 0.00 | 0.00 | 79 | |
| 20260506101237 | 11 | 325 | 1.6 | 6.4 | 0.00 | 0.00 | 0.00 | 79 | |
| 20260506100757 | 11 | 338 | 3.2 | 8.0 | 0.00 | 0.00 | 0.00 | 79 | |
| 20260506100233 | 11 | 327 | 4.8 | 8.0 | 0.00 | 0.00 | 0.00 | 79 | |
| 20260506095755 | 11 | 341 | 4.8 | 8.0 | 0.00 | 0.00 | 0.00 | 79 | |
| 20260506095231 | 11 | 326 | 3.2 | 4.8 | 0.00 | 0.00 | 0.00 | 79 | |
| 20260506094732 | 11 | 326 | 3.2 | 4.8 | 0.00 | 0.00 | 0.00 | 79 | |
| 20260506094234 | 11 | 332 | 3.2 | 4.8 | 0.00 | 0.00 | 0.00 | 79 | |
| 20260506093734 | 11 | 333 | 1.6 | 4.8 | 0.00 | 0.00 | 0.00 | 79 | |
| 20260506093235 | 11 | 326 | 1.6 | 4.8 | 0.00 | 0.00 | 0.00 | 79 | |
| 20260506092735 | 11 | 329 | 3.2 | 4.8 | 0.00 | 0.00 | 0.00 | 79 | |
| 20260506092243 | 11 | 322 | 1.6 | 6.4 | 0.00 | 0.00 | 0.00 | 79 | |
| 20260506091752 | 11 | 334 | 4.8 | 6.4 | 0.00 | 0.00 | 0.00 | 79 | |
| 20260506091236 | 10 | 325 | 0.0 | 0.0 | 0.00 | 0.00 | 0.00 | 79 | |
| 20260506090737 | 10 | 314 | 0.0 | 0.0 | 0.00 | 0.00 | 0.00 | 78 | |
| 20260506090240 | 10 | 314 | 0.0 | 0.0 | 0.00 | 0.00 | 0.00 | 78 | |
| 20260506085756 | 11 | 314 | 0.0 | 0.0 | 0.00 | 0.00 | 0.00 | 78 | |
| 20260506085234 | 11 | 314 | 0.0 | 0.0 | 0.00 | 0.00 | 0.00 | 78 | |
| 20260506084754 | 11 | 314 | 0.0 | 0.0 | 0.00 | 0.00 | 0.00 | 78 | |
| 20260506084235 | 11 | 314 | 0.0 | 0.0 | 0.00 | 0.00 | 0.00 | 77 | |
| 20260506083753 | 11 | 314 | 0.0 | 0.0 | 0.00 | 0.00 | 0.00 | 77 | |
| 20260506083314 | 11 | 314 | 0.0 | 0.0 | 0.00 | 0.00 | 0.00 | 77 | |
| 20260506082812 | 11 | 314 | 0.0 | 1.6 | 0.00 | 0.00 | 0.00 | 77 | |
| 20260506082232 | 11 | 312 | 0.0 | 3.2 | 0.00 | 0.00 | 0.00 | 77 | |
| 20260506081733 | 11 | 318 | 1.6 | 4.8 | 0.00 | 0.00 | 0.00 | 77 | |
| 20260506081236 | 11 | 330 | 0.0 | 0.0 | 0.00 | 0.00 | 0.00 | 76 | |
| 20260506080736 | 11 | 321 | 0.0 | 0.0 | 0.00 | 0.00 | 0.00 | 76 | |
| 20260506080254 | 11 | 321 | 0.0 | 0.0 | 0.00 | 0.00 | 0.00 | 76 | |
| 20260506073250 | 11 | 332 | 0.0 | 0.0 | 0.00 | 0.00 | 0.00 | 75 | |
| 20260506072808 | 11 | 332 | 0.0 | 3.2 | 0.00 | 0.00 | 0.00 | 75 | |
| 20260506072230 | 11 | 332 | 0.0 | 3.2 | 0.00 | 0.00 | 0.00 | 75 | |
| 20260506071731 | 11 | 334 | 0.0 | 1.6 | 0.00 | 0.00 | 0.00 | 75 | |
| 20260506071234 | 11 | 334 | 0.0 | 3.2 | 0.00 | 0.00 | 0.00 | 74 | |
| 20260506070733 | 11 | 334 | 0.0 | 3.2 | 0.00 | 0.00 | 0.00 | 74 | |
| 20260506070251 | 12 | 333 | 1.6 | 4.8 | 0.00 | 0.00 | 0.00 | 74 | |
| 20260506062307 | 12 | 323 | 0.0 | 3.2 | 0.00 | 0.00 | 0.00 | 72 | |
| 20260506061750 | 12 | 323 | 1.6 | 3.2 | 0.00 | 0.00 | 0.00 | 71 | |
| 20260506061233 | 12 | 323 | 0.0 | 3.2 | 0.00 | 0.00 | 0.00 | 71 | |
| 20260506060734 | 12 | 323 | 1.6 | 3.2 | 0.00 | 0.00 | 0.00 | 71 | |
| 20260506060230 | 12 | 331 | 0.0 | 4.8 | 0.00 | 0.00 | 0.00 | 71 | |
| 20260506051240 | 12 | 316 | 0.0 | 0.0 | 0.00 | 0.00 | 0.00 | 69 | |
| 20260506050739 | 13 | 316 | 0.0 | 0.0 | 0.00 | 0.00 | 0.00 | 69 | |
| 20260506050239 | 13 | 337 | 0.0 | 0.0 | 0.00 | 0.00 | 0.00 | 69 | |
| 20260506044728 | 13 | 332 | 0.0 | 1.6 | 0.00 | 0.00 | 0.00 | 70 | |
| 20260506044231 | 13 | 343 | 0.0 | 1.6 | 0.00 | 0.00 | 0.00 | 70 | |
| 20260506043735 | 13 | 347 | 0.0 | 4.8 | 0.00 | 0.00 | 0.00 | 70 | |
| 20260506043309 | 14 | 337 | 3.2 | 4.8 | 0.00 | 0.00 | 0.00 | 70 | |
| 20260506042731 | 14 | 310 | 1.6 | 3.2 | 0.00 | 0.00 | 0.00 | 70 | |
| 20260506042250 | 14 | 305 | 0.0 | 0.0 | 0.00 | 0.00 | 0.00 | 69 | |
| 20260506041732 | 14 | 263 | 0.0 | 0.0 | 0.00 | 0.00 | 0.00 | 69 | |
| 20260506041235 | 14 | 257 | 0.0 | 0.0 | 0.00 | 0.00 | 0.00 | 68 | |
| 20260506040755 | 14 | 256 | 0.0 | 0.0 | 0.00 | 0.00 | 0.00 | 68 | |
| 20260506040232 | 15 | 257 | 0.0 | 0.0 | 0.00 | 0.00 | 0.00 | 68 | |
| 20260506035733 | 15 | 256 | 0.0 | 0.0 | 0.00 | 0.00 | 0.00 | 67 | |
| 20260506035231 | 15 | 274 | 0.0 | 0.0 | 0.00 | 0.00 | 0.00 | 67 | |
| 20260506034732 | 15 | 274 | 0.0 | 0.0 | 0.00 | 0.00 | 0.00 | 67 | |
| 20260506034256 | 15 | 274 | 0.0 | 0.0 | 0.00 | 0.00 | 0.00 | 66 | |
| 20260506033757 | 15 | 274 | 0.0 | 0.0 | 0.00 | 0.00 | 0.00 | 66 | |
| 20260506033237 | 15 | 274 | 0.0 | 0.0 | 0.00 | 0.00 | 0.00 | 66 | |
| 20260506032755 | 15 | 274 | 0.0 | 0.0 | 0.00 | 0.00 | 0.00 | 65 | |
| 20260506032245 | 15 | 274 | 0.0 | 0.0 | 0.00 | 0.00 | 0.00 | 65 | |
| 20260506031748 | 15 | 280 | 0.0 | 0.0 | 0.00 | 0.00 | 0.00 | 65 | |
| 20260506031228 | 15 | 280 | 0.0 | 0.0 | 0.00 | 0.00 | 0.00 | 64 | |
| 20260506030731 | 15 | 277 | 0.0 | 0.0 | 0.00 | 0.00 | 0.00 | 64 | |
| 20260506030253 | 16 | 303 | 0.0 | 0.0 | 0.00 | 0.00 | 0.00 | 64 | |
| 20260506025735 | 16 | 303 | 0.0 | 8.0 | 0.00 | 0.00 | 0.00 | 64 | |
| 20260506025241 | 16 | 333 | 3.2 | 8.0 | 0.00 | 0.00 | 0.00 | 63 | |
| 20260506024751 | 16 | 326 | 1.6 | 12.9 | 0.00 | 0.00 | 0.00 | 63 | |
| 20260506024242 | 16 | 310 | 6.4 | 12.9 | 0.00 | 0.00 | 0.00 | 63 | |
| 20260506023745 | 16 | 323 | 1.6 | 6.4 | 0.00 | 0.00 | 0.00 | 63 |